Location: Balsareny
(41.8670°N, 1.8830°E)
Time: 08:32:03
(UTC+01:00)

ISS - Visible Passes

Search period start: 27 January 2021 00:00
Search period end: 06 February 2021 00:00
Orbit: 418 x 421 km, 51.6° (Epoch: 27 January)

Date Brightness Start Highest point End Pass type
(mag) Time Alt. Az. Time Alt. Az. Time Alt. Az.
27 Jan -1.6 19:36:57 10° NW 19:39:06 16° N 19:39:13 16° N visible
28 Jan -1.6 18:49:21 10° NW 18:51:31 16° N 18:53:41 10° NE visible
28 Jan -0.7 20:26:33 10° NW 20:26:49 11° NNW 20:26:49 11° NNW visible
29 Jan -1.8 19:39:15 10° NW 19:41:27 18° N 19:41:27 18° N visible
30 Jan -1.7 18:51:52 10° NW 18:54:07 16° N 18:56:07 11° NE visible
30 Jan -0.9 20:28:27 10° NW 20:29:06 14° NW 20:29:06 14° NW visible
31 Jan -2.4 19:41:11 10° NW 19:43:49 27° N 19:43:49 27° N visible
01 Feb -2.2 18:53:54 10° NW 18:56:36 22° NNE 18:58:36 14° ENE visible
01 Feb -1.3 20:30:22 10° NW 20:31:35 20° NW 20:31:35 20° NW visible
02 Feb -3.7 19:43:01 10° NW 19:46:21 56° NNE 19:46:29 56° NE visible
03 Feb -3.1 18:55:42 10° NW 18:58:53 37° NNE 19:01:31 14° E visible
03 Feb -1.4 20:32:38 10° WNW 20:34:31 24° W 20:34:31 24° W visible
04 Feb -3.0 19:45:01 10° WNW 19:48:19 52° SW 19:49:43 29° SSE visible
05 Feb -3.8 18:57:33 10° NW 19:00:56 88° SSW 19:04:18 10° SE visible
05 Feb -0.6 20:36:29 10° WSW 20:37:14 11° SW 20:38:00 10° SW visible
